Middletown, OH

5:24 PM EDT on September 20, 2017 (GMT -0400)
Hook Field Municipal

Weather History for KMWO - October, 2013

Change the Weather History Date:

Thursday, October 24, 2013

  Actual Average (KFFO) Record (KFFO)
Temperature  
Mean Temperature 38 °F -  
Max Temperature 42 °F 60 °F 77 °F (2010)
Min Temperature 35 °F 40 °F 30 °F (2003)
Degree Days  
Heating Degree Days 26    
Moisture  
Dew Point 31 °F    
Average Humidity 74    
Maximum Humidity 82    
Minimum Humidity 61    
Precipitation  
Precipitation 0.00 in - - ()
Sea Level Pressure  
Sea Level Pressure 30.14 in    
Wind  
Wind Speed 7 mph (WSW)    
Max Wind Speed 15 mph    
Max Gust Speed 24 mph    
Visibility 10 miles    
Events      
Averages and records for this station are not official NWS values.
T = Trace of Precipitation, MM = Missing Value Source: NWS Daily Summary

Daily Weather History Graph

Daily Weather History Graph

Search for Another Location

Airport or City:

Trip Planner

Search our weather history database for the weather conditions in past years. The results will help you decide how hot, cold, wet, or windy it might be!

Date:

Astronomy

Oct. 24, 2013 Rise Set
Actual Time 7:57 AM EDT 6:45 PM EDT
Civil Twilight 7:29 AM EDT 7:13 PM EDT
Nautical Twilight 6:58 AM EDT 7:44 PM EDT
Astronomical Twilight 6:27 AM EDT 8:15 PM EDT
Moon 11:09 PM EDT (10/24) 12:57 PM EDT (10/24)
Length of Visible Light 11h 43m
Length of Day
10h 48m
Waning Gibbous, 71% of the Moon is Illuminated
Oct 24
Waning Gibbous
Oct 26
Last Quarter
Nov 3
New
Nov 10
First Quarter
Nov 17
Full

Hourly Weather History & Observations

Time (EDT) Temp. Windchill Dew Point Humidity Pressure Visibility Wind Dir Wind Speed Gust Speed Precip Events Conditions
12:15 AM 40.1 °F 34.7 °F 30.4 °F 68% 30.06 in 10.0 mi West 8.1 mph - N/A   Overcast
12:35 AM 40.1 °F 35.3 °F 30.2 °F 68% 30.05 in 10.0 mi West 6.9 mph - N/A   Overcast
12:55 AM 38.8 °F 35.4 °F 29.3 °F 69% 30.05 in 10.0 mi WSW 4.6 mph - N/A   Overcast
1:15 AM 39.0 °F 35.7 °F 29.7 °F 69% 30.05 in 10.0 mi WSW 4.6 mph - N/A   Overcast
1:35 AM 38.8 °F 35.4 °F 29.8 °F 70% 30.05 in 10.0 mi WSW 4.6 mph - N/A   Overcast
1:55 AM 38.8 °F 34.6 °F 30.6 °F 72% 30.05 in 10.0 mi SW 5.8 mph - N/A   Overcast
2:15 AM 38.8 °F 34.6 °F 31.6 °F 75% 30.06 in 10.0 mi WSW 5.8 mph - N/A   Overcast
2:35 AM 37.8 °F 33.3 °F 32.0 °F 80% 30.06 in 10.0 mi WSW 5.8 mph - N/A   Overcast
2:55 AM 37.6 °F 33.1 °F 32.0 °F 80% 30.06 in 10.0 mi SW 5.8 mph - N/A   Overcast
3:15 AM 37.6 °F 33.1 °F 32.0 °F 80% 30.06 in 10.0 mi WSW 5.8 mph - N/A   Overcast
3:35 AM 37.6 °F 33.1 °F 32.0 °F 80% 30.06 in 10.0 mi WSW 5.8 mph - N/A   Overcast
3:55 AM 37.6 °F 32.3 °F 32.0 °F 80% 30.06 in 10.0 mi WSW 6.9 mph - N/A   Overcast
4:15 AM 37.6 °F 33.1 °F 31.8 °F 80% 30.07 in 10.0 mi WSW 5.8 mph - N/A   Overcast
4:35 AM 37.6 °F 32.3 °F 31.3 °F 78% 30.07 in 10.0 mi West 6.9 mph - N/A   Overcast
4:55 AM 37.6 °F 32.3 °F 31.1 °F 77% 30.07 in 10.0 mi West 6.9 mph - N/A   Overcast
5:15 AM 37.6 °F 34.0 °F 31.3 °F 78% 30.07 in 10.0 mi West 4.6 mph - N/A   Overcast
5:35 AM 37.6 °F 33.1 °F 31.1 °F 77% 30.07 in 10.0 mi West 5.8 mph - N/A   Overcast
5:55 AM 37.6 °F 34.0 °F 31.1 °F 77% 30.07 in 10.0 mi WSW 4.6 mph - N/A   Overcast
6:15 AM 37.6 °F 33.1 °F 31.8 °F 80% 30.07 in 10.0 mi SW 5.8 mph - N/A   Overcast
6:35 AM 37.6 °F 33.1 °F 31.8 °F 80% 30.08 in 10.0 mi WSW 5.8 mph - N/A   Overcast
6:55 AM 37.6 °F 32.3 °F 31.5 °F 79% 30.09 in 10.0 mi WSW 6.9 mph - N/A   Overcast
7:15 AM 37.6 °F 32.3 °F 31.5 °F 79% 30.09 in 10.0 mi WSW 6.9 mph - N/A   Overcast
7:35 AM 37.6 °F 31.6 °F 31.8 °F 80% 30.10 in 10.0 mi WSW 8.1 mph - N/A   Overcast
7:55 AM 37.6 °F 32.3 °F 31.8 °F 80% 30.10 in 10.0 mi WSW 6.9 mph - N/A   Overcast
8:15 AM 37.6 °F 31.6 °F 31.8 °F 80% 30.09 in 10.0 mi SW 8.1 mph - N/A   Overcast
8:35 AM 37.6 °F 34.0 °F 31.6 °F 79% 30.09 in 10.0 mi WSW 4.6 mph - N/A   Overcast
8:55 AM 37.6 °F 32.3 °F 31.8 °F 80% 30.11 in 10.0 mi WSW 6.9 mph - N/A   Overcast
9:15 AM 37.9 °F 32.1 °F 31.5 °F 77% 30.12 in 10.0 mi WSW 8.1 mph - N/A   Overcast
9:35 AM 38.8 °F 33.2 °F 31.6 °F 75% 30.13 in 10.0 mi West 8.1 mph - N/A   Overcast
9:55 AM 38.8 °F 33.2 °F 31.6 °F 75% 30.13 in 10.0 mi WSW 8.1 mph - N/A   Overcast
10:15 AM 39.9 °F 34.5 °F 31.8 °F 73% 30.14 in 10.0 mi West 8.1 mph - N/A   Overcast
10:35 AM 40.1 °F 33.6 °F 31.5 °F 71% 30.14 in 10.0 mi WSW 10.4 mph - N/A   Overcast
10:55 AM 40.1 °F 34.1 °F 30.7 °F 69% 30.14 in 10.0 mi West 9.2 mph - N/A   Overcast
11:15 AM 40.3 °F 34.4 °F 30.2 °F 67% 30.14 in 10.0 mi West 9.2 mph - N/A   Overcast
11:35 AM 41.2 °F 35.5 °F 30.2 °F 65% 30.14 in 10.0 mi WSW 9.2 mph - N/A   Overcast
11:55 AM 41.7 °F 35.6 °F 29.8 °F 63% 30.14 in 10.0 mi West 10.4 mph - N/A   Overcast
12:15 PM 40.6 °F 34.3 °F 28.2 °F 61% 30.15 in 10.0 mi West 10.4 mph - N/A   Overcast
12:35 PM 40.6 °F 33.0 °F 28.2 °F 61% 30.15 in 10.0 mi West 13.8 mph - N/A   Overcast
12:55 PM 41.4 °F 34.3 °F 30.0 °F 64% 30.15 in 10.0 mi West 12.7 mph 20.7 mph N/A   Overcast
1:15 PM 41.2 °F 33.4 °F 30.0 °F 65% 30.16 in 10.0 mi West 15.0 mph 19.6 mph N/A   Overcast
1:35 PM 41.0 °F 34.3 °F 30.6 °F 66% 30.15 in 10.0 mi West 11.5 mph 18.4 mph N/A   Overcast
1:55 PM 40.6 °F 33.8 °F 29.5 °F 64% 30.15 in 10.0 mi West 11.5 mph - N/A   Overcast
2:15 PM 41.4 °F 34.7 °F 30.4 °F 65% 30.14 in 10.0 mi West 11.5 mph 19.6 mph N/A   Overcast
2:35 PM 41.4 °F 34.7 °F 30.7 °F 66% 30.14 in 10.0 mi West 11.5 mph 18.4 mph N/A   Overcast
2:55 PM 41.5 °F 35.0 °F 30.2 °F 64% 30.14 in 10.0 mi West 11.5 mph - N/A   Overcast
3:15 PM 42.3 °F 36.8 °F 31.3 °F 65% 30.14 in 10.0 mi SW 9.2 mph 18.4 mph N/A   Overcast
3:35 PM 41.5 °F 35.9 °F 32.0 °F 69% 30.14 in 10.0 mi SW 9.2 mph - N/A   Overcast
3:55 PM 41.5 °F 37.1 °F 32.0 °F 69% 30.15 in 10.0 mi WSW 6.9 mph - N/A   Overcast
4:15 PM 41.5 °F 37.1 °F 31.8 °F 68% 30.15 in 10.0 mi SW 6.9 mph - N/A   Overcast
4:35 PM 42.8 °F 38.0 °F 32.0 °F 66% 30.15 in 10.0 mi SW 8.1 mph - N/A   Overcast
4:55 PM 40.3 °F 32.2 °F 30.4 °F 68% 30.16 in 10.0 mi West 15.0 mph 24.2 mph N/A   Overcast
5:15 PM 38.8 °F 32.6 °F 31.8 °F 76% 30.17 in 10.0 mi West 9.2 mph - N/A   Overcast
5:35 PM 38.5 °F 32.7 °F 31.8 °F 77% 30.18 in 10.0 mi West 8.1 mph - N/A   Overcast
5:55 PM 38.8 °F 35.4 °F 32.2 °F 77% 30.19 in 10.0 mi WSW 4.6 mph - N/A   Overcast
6:15 PM 38.3 °F 33.9 °F 32.0 °F 78% 30.19 in 10.0 mi SW 5.8 mph - N/A   Overcast
6:35 PM 38.3 °F 35.9 °F 32.5 °F 80% 30.20 in 10.0 mi WSW 3.5 mph - N/A   Overcast
6:55 PM 37.9 °F 33.5 °F 32.9 °F 82% 30.20 in 10.0 mi WSW 5.8 mph - N/A   Overcast
7:15 PM 37.9 °F 32.7 °F 32.5 °F 81% 30.21 in 10.0 mi WSW 6.9 mph - N/A   Overcast
7:35 PM 37.9 °F 32.7 °F 32.5 °F 81% 30.22 in 10.0 mi West 6.9 mph - N/A   Overcast
7:55 PM 37.8 °F 33.3 °F 32.7 °F 82% 30.23 in 10.0 mi West 5.8 mph - N/A   Overcast
8:15 PM 37.8 °F 34.2 °F 32.7 °F 82% 30.23 in 10.0 mi West 4.6 mph - N/A   Overcast
8:35 PM 37.9 °F 33.5 °F 32.9 °F 82% 30.24 in 10.0 mi West 5.8 mph - N/A   Overcast
8:55 PM 38.8 °F 34.6 °F 32.0 °F 76% 30.24 in 10.0 mi West 5.8 mph - N/A   Overcast
9:15 PM 38.8 °F 34.6 °F 32.0 °F 76% 30.25 in 10.0 mi West 5.8 mph - N/A   Overcast
9:35 PM 38.3 °F 33.9 °F 31.6 °F 77% 30.25 in 10.0 mi West 5.8 mph - N/A   Overcast
9:55 PM 37.6 °F 34.0 °F 32.0 °F 80% 30.25 in 10.0 mi West 4.6 mph - N/A   Overcast
10:15 PM 37.6 °F 33.1 °F 31.1 °F 77% 30.26 in 10.0 mi West 5.8 mph - N/A   Overcast
10:35 PM 37.6 °F 34.0 °F 31.1 °F 77% 30.26 in 10.0 mi West 4.6 mph - N/A   Overcast
10:55 PM 37.6 °F 35.1 °F 30.2 °F 75% 30.27 in 10.0 mi WSW 3.5 mph - N/A   Overcast
11:15 PM 37.6 °F 34.0 °F 32.0 °F 80% 30.27 in 10.0 mi SW 4.6 mph - N/A   Overcast
11:35 PM 35.4 °F 32.6 °F 30.4 °F 82% 30.28 in 10.0 mi SW 3.5 mph - N/A   Overcast
11:55 PM 35.1 °F 31.0 °F 30.2 °F 82% 30.28 in 10.0 mi SSW 4.6 mph - N/A   Overcast